www.pogodaiklimat.ru

Погода и климат >> Архив погоды >> Россия >> Якутия >> Усть-Мома


АРХИВ ПОГОДЫ в Усть-Моме

Время (UTC), дата Ветер
(напр.,м/с)
 
Видим.   Явления Облачность Т
(С)
Тd
(С)
f
(%)
Тe
(С)
Тes
(С)
Комфортность P
(гПа)
Po
(гПа)
Тmin
(С)
Tmax
(С)
R
(мм)
R24
(мм)
S
(см)
12 11.08 С 1 50 км 8/8 1500 м
[Sc Ci fib]
+16.7 +11.4 71 +18 +18 1010.9 987.8
15 11.08 ЮЗ 1 50 км 9/8 1500 м
[Cb cap Ac trans]
+15.3 +11.0 76 +16 +16 1011.0 987.9
18 11.08 штиль 0 50 км 6/4 1500 м
[Sc Ci fib]
+9.0 +9.0 100 +8 +8 1012.1 988.4
21 11.08 штиль 0 50 км 8/3
[Sc Ac trans Ci fib]
+11.8 +9.4 85 +11 +12 1012.3 988.9 +8.9
00 12.08 штиль 0 50 км 3/0
[Ci fib]
+17.5 +11.0 66 +18 +26 1011.2 988.2
03 12.08 СЗ 3 50 км 4/4 1500 м
[Cu hum]
+22.7 +10.4 46 +25 +29 комфорт 1008.6 986.2
06 12.08 СЗ 3 50 км 6/6 1500 м
[Cu med, cong]
+24.7 +11.7 44 +26 +28 жарко 1007.0 984.7
09 12.08 СЗ 3 20 км дым 6/4 1000 м
[Cu Sc Ci fib]
+22.7 +8.4 40 +24 +24 комфорт 1006.9 984.5 +25.0
12 12.08 СЗ 1 50 км 6/4 1000 м
[Sc diur, vesp Ci fib]
+17.8 +7.6 51 +19 +19 1009.2 986.4
15 12.08 штиль 0 50 км 5/3 1000 м
[Sc Ci fib]
+12.0 +5.1 63 +12 +12 1011.3 987.9
18 12.08 штиль 0 50 км 5/1 1000 м
[Sc Ci fib]
+7.2 +5.6 90 +6 +6 1012.8 989.0
21 12.08 штиль 0 50 км 6/1 1000 м
[Sc Ci fib]
+9.8 +6.8 82 +9 +11 1013.4 989.8 +5.9
00 13.08 С 1 50 км 8/3 1500 м
[Cu med, cong Ci fib]
+16.4 +9.1 62 +17 +22 1012.8 989.7
03 13.08 С 1 50 км 9/4 1500 м
[Cu med, cong Ci fib]
+19.7 +7.7 46 +22 +26 комфорт 1011.5 988.7
06 13.08 З 1 50 км 8/4 1500 м
[Cu med, cong Ci fib]
+23.4 +7.1 35 +24 +27 комфорт 1010.5 988.0
09 13.08 СЗ 1 50 км 9/3 1500 м
[Sc Ci fib]
+18.5 +13.2 71 +20 +21 1010.5 987.6 +23.6
12 13.08 СЗ 1 50 км 10/3 1000 м
[Sc Ac trans Ci fib]
+16.4 +9.3 63 +17 +17 1011.2 988.1
15 13.08 Ю 2 50 км 10/3 1000 м
[Sc Ac trans Ci fib]
+12.7 +8.9 78 +12 +12 1012.9 989.6
18 13.08 ЮВ 1 50 км 8/1 1500 м
[Sc Ac trans Ci fib]
+7.6 +6.3 91 +7 +7 1014.2 990.5
21 13.08 штиль 0 50 км 4/0
[Ci fib]
+9.4 +6.2 80 +9 +11 1015.1 991.5 +6.5
00 14.08 штиль 0 50 км 4/0
[Ci fib]
+16.8 +9.6 62 +17 +24 1014.6 991.5
03 14.08 штиль 0 50 км 4/3 1500 м
[Cu med, cong Ci fib]
+20.2 +7.6 44 +21 +28 комфорт 1013.1 990.3
06 14.08 штиль 0 50 км 4/3 1500 м
[Cu med, cong Ci fib]
+23.4 +7.4 36 +24 +28 комфорт 1011.9 989.4
09 14.08 штиль 0 50 км 4/0
[Ci fib]
+23.1 +8.2 38 +24 +25 комфорт 1012.0 989.4 +23.4
12 14.08 С 2 50 км ясно +15.2 +11.1 77 +15 +15 1013.5 990.4
15 14.08 штиль 0 50 км ясно +10.0 +6.1 77 +9 +9 1015.3 991.7
18 14.08 штиль 0 50 км ясно +5.4 +4.9 97 +4 +4 1017.3 993.2
21 14.08 В 1 50 км ясно +8.6 +5.5 81 +8 +10 1017.8 994.0 +5.3
00 15.08 штиль 0 50 км 4/0
[Ci fib]
+15.6 +7.4 58 +16 +23 1016.8 993.6
03 15.08 штиль 0 50 км 4/0
[Ci fib]
+19.8 +8.8 49 +21 +30 комфорт 1014.4 991.6
06 15.08 СЗ 1 50 км 5/0
[Ci fib]
+22.9 +7.1 36 +24 +28 комфорт 1014.5 991.9
09 15.08 штиль 0 50 км 5/0
[Ci fib]
+18.9 +12.3 66 +20 +20 1015.2 992.4 +23.1
12 15.08 СЗ 3 50 км 4/0
[Ci fib]
+12.1 +7.8 75 +11 +11 1017.0 993.5
15 15.08 С 3 50 км 4/0
[Ci fib]
+9.7 +7.6 87 +7 +7 1019.2 995.5
18 15.08 штиль 0 50 км 4/0
[Ci fib]
+8.0 +6.7 91 +7 +7 1020.9 997.0
21 15.08 штиль 0 50 км 4/0
[Ci fib]
+7.8 +6.5 91 +7 +9 1022.0 998.0 +7.8
00 16.08 СЗ 2 50 км 4/0
[Ci fib]
+11.2 +7.7 79 +10 +15 1022.0 998.3
03 16.08 штиль 0 50 км 4/0
[Ci fib]
+17.0 +7.7 54 +17 +26 1020.0 997.3
06 16.08 штиль 0 50 км 5/0
[Ci fib]
+20.4 +8.6 47 +21 +27 комфорт 1018.8 996.0
09 16.08 С 4 50 км 5/0
[Ci fib]
+19.6 +7.8 46 +20 +21 1018.4 995.5 +21.2
12 16.08 СЗ 2 50 км 4/0
[Ci fib]
+13.4 +8.9 74 +13 +13 1020.2 996.8
15 16.08 СЗ 2 50 км 4/0
[Ci fib]
+11.0 +8.4 84 +10 +10 1021.5 997.8
18 16.08 штиль 0 50 км 4/0
[Ci fib]
+6.4 +5.6 95 +5 +5 1022.9 998.7
21 16.08 В 1 50 км 6/0 600 м
[Ci fib]
+8.8 +6.7 87 +8 +10 1023.5 999.6 +5.0
00 17.08 штиль 0 50 км 4/0
[Ci fib]
+13.5 +9.2 75 +13 +20 1022.9 999.4
03 17.08 СЗ 1 50 км 6/0
[Ci fib]
+19.4 +10.1 55 +22 +29 комфорт 1020.8 997.8
06 17.08 СЗ 1 50 км 10/3 1000 м
[Cu med, cong Ci fib]
+21.2 +10.2 49 +23 +25 комфорт 1019.1 996.4
09 17.08 СЗ 1 50 км 10/0
[Ac trans Ci fib]
+21.2 +11.3 53 +23 +23 комфорт 1018.5 995.8 +21.4
12 17.08 штиль 0 50 км 6/0
[Ac trans Ci fib]
+14.6 +10.4 76 +14 +14 1019.9 996.6
15 17.08 штиль 0 50 км 6/0
[Ci fib]
+8.6 +7.5 93 +8 +8 1021.6 997.7
18 17.08 штиль 0 50 км 6/0
[Ci fib]
+5.4 +4.9 97 +4 +4 1022.6 988.4
21 17.08 штиль 0 50 км 8/0
[Ci fib]
+8.6 +6.4 86 +8 +9 1022.6 998.7 +4.5
00 18.08 штиль 0 50 км 8/0
[Ci fib]
+15.7 +9.8 68 +16 +22 1021.7 998.3
03 18.08 СЗ 1 50 км 8/0
[Ci fib]
+20.6 +8.2 45 +23 +30 комфорт 1019.7 996.9
06 18.08 С 1 50 км 8/0
[Ci fib]
+23.4 +8.9 40 +25 +29 комфорт 1017.8 995.2

 

Местоположение метеостанции Усть-Мома (Якутия, Россия): широта 66.45 долгота 143.20 высота над уровнем моря 196 м.

В архиве по умолчанию представлена погода в Усть-Моме за последнюю неделю. Архивные данные за месяц целиком и за предыдущие месяцы, начиная с января 2011 года, Вы можете получить, выбрав интересующий диапазон дат из раскрывающегося списка и нажав кнопку "Ввод!".


*Определитесь, кто Вы:
робот инопланетянин человек

Внимание! Время в таблицах - всемирное. Для получения местного времени необходимо прибавить поправку, которая равна 11 ч.

Смотрите также архив погоды в соседних городах и на ближайших метеорологических станциях:

Погода в Усть-Нере (Якутия, Россия) (214 км)
Погода в Белой Горе (Якутия, Россия) (266 км)
Погода в Юртах (Якутия, Россия) (275 км)
Погода в Усть-Чарках (Якутия, Россия) (294 км)
Погода в Делянкире (Якутия, Россия) (312 км)
Погода в Агаякане (Якутия, Россия) (354 км)
Погода в Депутатском (Якутия, Россия) (355 км)
Погода в Оймяконе (Якутия, Россия) (356 км)
Погода в Зырянке (Якутия, Россия) (356 км)
Погода в Иэме (Якутия, Россия) (360 км)

Пояснения к столбцам:

Ветер - указаны скорость ветра в м/с - средняя за 10 мин, порывы в срок и между сроками (в фигурных скобках) и направление, откуда дует ветер: С - северный, СВ - северо-восточный, В - восточный, ЮВ - юго-восточный, Ю - южный, ЮЗ - юго-западный, З - западный, СЗ - северо-западный.
Видимость - горизонтальная дальность видимости в метрах или километрах. При видимости от 1 до 10 км при отсутствии осадков обычно наблюдается дымка, при ухудшении видимости до 1 км и менее - туман. В сухую погоду видимость может ухудшаться дымом, пылью или мглою.
Явления - указаны атмосферные явления, наблюдавшиеся в срок или в последний час перед сроком; фигурными скобками обозначены явления, наблюдавшиеся между сроками (за 1-3 часа до срока); квадратными скобками обозначены град или гололедные отложения с указанием их диаметра в мм.
Облачность - указаны через наклонную черту общая и нижняя облачность в баллах и высота нижней границы облаков в метрах; квадратными скобками обозначены формы облаков: Ci - перистые, Cs - перисто-слоистые, Cc - перисто-кучевые, Ac - высококучевые, As - высокослоистые, Sc - слоисто-кучевые, Ns - слоисто-дождевые, Cu - кучевые, Cb - кучево-дождевые. Подробнее классификацию облаков см. в Атласе облаков (PDF).
T - Температура воздуха - температура, измеренная на высоте 2 м над землей.
Td - Температура точки росы - температура, при понижении до которой содержащийся в воздухе водяной пар достигнет насыщения.
f - Относительная влажность воздуха - влажноcть воздуха, измеренная на высоте 2 м над землей.
Te - Эффективная температура - температура, которую ощущает одетый по сезону человек в тени. Характеристика душности погоды. При расчете учитывается влияние влажности воздуха и скорости ветра на теплоощущения человека.
Tes - Эффективная температура на солнце - температура, которую ощущает человек, с поправкой на солнечный нагрев. Характеристика знойности погоды. Зависит от высоты солнца над горизонтом, облачности и скорости ветра. Ночью, в пасмурную погоду, а также при ветре 12 м/с и более поправка равна нулю.
P - Атмосферное давление - приведенное к уровню моря атмосферное давление.
Po - Атмосферное давление - измеренное на уровне метеостанции атмосферное давление.
Tmin - Минимальная температура - минимум температуры воздуха на высоте 2 м над землей.
Tmax - Максимальная температура - максимум температуры воздуха на высоте 2 м над землей.
R - Количество осадков - Количество выпавших осадков за период времени, мм. При наведении курсора мыши на число - период времени, за который выпало указанное количество осадков.
R24 - Количество осадков - Количество выпавших осадков за 24 часа, мм.
S - Снежный покров - Высота снежного покрова, см. При наведении курсора мыши на число - состояние снежного покрова и степень покрытия местности в баллах.